Valley City, ND

1:29 PM CST on December 07, 2019 (GMT -0600)
Valley City

Weather History for KBAC - October, 2019

Change the Weather History Date:

Wednesday, October 30, 2019

  Actual Average (KJMS) Record (KJMS)
Temperature  
Mean Temperature 20 °F -  
Max Temperature 26 °F 48 °F 81 °F (1950)
Min Temperature 15 °F 28 °F -3 °F (1925)
Degree Days  
Heating Degree Days 44    
Moisture  
Dew Point 14 °F    
Average Humidity 73    
Maximum Humidity 93    
Minimum Humidity 59    
Precipitation  
Precipitation 0.00 in - - ()
Sea Level Pressure  
Sea Level Pressure 30.25 in    
Wind  
Wind Speed 12 mph (West)    
Max Wind Speed 20 mph    
Max Gust Speed 25 mph    
Visibility 10 miles    
Events Snow    
Averages and records for this station are not official NWS values.
T = Trace of Precipitation, MM = Missing Value Source: NWS Daily Summary

Daily Weather History Graph

Daily Weather History Graph

Search for Another Location

Airport or City:

Astronomy

Oct. 30, 2019 Rise Set
Actual Time 8:11 AM CDT 6:19 PM CDT
Civil Twilight 7:39 AM CDT 6:50 PM CDT
Nautical Twilight 7:03 AM CDT 7:26 PM CDT
Astronomical Twilight 6:28 AM CDT 8:01 PM CDT
Moon 11:04 AM CDT (10/30) 8:19 PM CDT (10/30)
Length of Visible Light 11h 11m
Length of Day
10h 07m
Waxing Crescent, 9% of the Moon is Illuminated
Oct 30
Waxing Crescent
Nov 4
First Quarter
Nov 12
Full
Nov 19
Last Quarter
Nov 26
New

Hourly Weather History & Observations

Time (CDT) Temp. Windchill Dew Point Humidity Pressure Visibility Wind Dir Wind Speed Gust Speed Precip Events Conditions
12:15 AM 23.0 °F 11.7 °F 10.4 °F 59% 30.28 in 10.0 mi West 11.5 mph 18.4 mph N/A   Overcast
12:35 AM 23.0 °F 9.6 °F 10.4 °F 59% 30.27 in 10.0 mi WNW 16.1 mph 23.0 mph N/A   Overcast
12:55 AM 23.0 °F 8.7 °F 10.4 °F 59% 30.27 in 10.0 mi West 18.4 mph 25.3 mph N/A   Overcast
1:15 AM 23.0 °F 9.6 °F 12.2 °F 63% 30.27 in 10.0 mi West 16.1 mph 23.0 mph N/A   Overcast
1:35 AM 23.0 °F 9.6 °F 12.2 °F 63% 30.27 in 10.0 mi WNW 16.1 mph - N/A   Overcast
1:55 AM 23.0 °F 10.6 °F 10.4 °F 59% 30.27 in 10.0 mi West 13.8 mph - N/A   Overcast
2:15 AM 21.2 °F 8.3 °F 10.4 °F 63% 30.27 in 10.0 mi West 13.8 mph - N/A   Mostly Cloudy
2:35 AM 21.2 °F 10.9 °F 12.2 °F 68% 30.27 in 10.0 mi WNW 9.2 mph 15.0 mph N/A   Mostly Cloudy
2:55 AM 19.4 °F 9.5 °F 12.2 °F 74% 30.27 in 10.0 mi WNW 8.1 mph - N/A   Clear
3:15 AM 19.4 °F 8.6 °F 12.2 °F 74% 30.27 in 10.0 mi West 9.2 mph - N/A   Clear
3:35 AM 19.4 °F 8.6 °F 12.2 °F 74% 30.27 in 10.0 mi West 9.2 mph - N/A   Clear
4:15 AM 19.4 °F 6.0 °F 14.0 °F 80% 30.27 in 10.0 mi West 13.8 mph 20.7 mph N/A Snow Light Snow
4:35 AM 19.4 °F 6.0 °F 14.0 °F 80% 30.27 in 10.0 mi West 13.8 mph - N/A   Clear
4:55 AM 19.4 °F 7.9 °F 14.0 °F 80% 30.28 in 10.0 mi West 10.4 mph - N/A   Clear
5:15 AM 19.4 °F 6.6 °F 14.0 °F 80% 30.28 in 10.0 mi West 12.7 mph - N/A   Clear
5:35 AM 19.4 °F 6.6 °F 14.0 °F 80% 30.28 in 10.0 mi West 12.7 mph - N/A   Clear
5:55 AM 19.4 °F 7.9 °F 14.0 °F 80% 30.29 in 10.0 mi West 10.4 mph - N/A   Clear
6:15 AM 19.4 °F 8.6 °F 14.0 °F 80% 30.28 in 10.0 mi West 9.2 mph 16.1 mph N/A   Mostly Cloudy
6:35 AM 19.4 °F 7.9 °F 15.8 °F 86% 30.29 in 10.0 mi West 10.4 mph - N/A   Overcast
6:55 AM 21.2 °F 8.9 °F 15.8 °F 80% 30.29 in 10.0 mi West 12.7 mph - N/A   Overcast
7:35 AM 19.4 °F 7.2 °F 15.8 °F 86% 30.28 in 10.0 mi West 11.5 mph - N/A   Overcast
8:15 AM 19.4 °F 7.2 °F 14.0 °F 80% 30.27 in 10.0 mi West 11.5 mph 18.4 mph N/A   Partly Cloudy
8:35 AM 19.4 °F 8.6 °F 15.8 °F 86% 30.27 in 10.0 mi West 9.2 mph - N/A   Mostly Cloudy
8:55 AM 19.4 °F 6.6 °F 15.8 °F 86% 30.27 in 10.0 mi West 12.7 mph - N/A   Scattered Clouds
9:15 AM 21.2 °F 8.3 °F 15.8 °F 80% 30.28 in 10.0 mi West 13.8 mph - N/A   Clear
9:35 AM 21.2 °F 8.3 °F 15.8 °F 80% 30.27 in 10.0 mi West 13.8 mph - N/A Snow Light Snow
9:55 AM 23.0 °F 9.6 °F 15.8 °F 74% 30.27 in 10.0 mi WNW 16.1 mph - N/A Snow Light Snow
10:15 AM 23.0 °F 8.7 °F 14.0 °F 68% 30.27 in 10.0 mi WNW 18.4 mph - N/A Snow Light Snow
10:35 AM 23.0 °F 9.2 °F 14.0 °F 68% 30.28 in 10.0 mi WNW 17.3 mph - N/A Snow Light Snow
10:55 AM 23.0 °F 9.2 °F 14.0 °F 68% 30.28 in 10.0 mi WNW 17.3 mph - N/A   Overcast
11:15 AM 23.0 °F 8.3 °F 14.0 °F 68% 30.28 in 10.0 mi NW 19.6 mph - N/A Snow Light Snow
11:35 AM 24.8 °F 11.1 °F 14.0 °F 64% 30.28 in 10.0 mi WNW 18.4 mph - N/A   Overcast
11:55 AM 24.8 °F 11.9 °F 14.0 °F 64% 30.28 in 10.0 mi WNW 16.1 mph - N/A   Overcast
12:15 PM 24.8 °F 12.9 °F 14.0 °F 64% 30.28 in 10.0 mi NW 13.8 mph - N/A   Overcast
12:35 PM 24.8 °F 11.9 °F 14.0 °F 64% 30.28 in 10.0 mi WNW 16.1 mph - N/A   Overcast
1:15 PM 24.8 °F 13.4 °F 14.0 °F 64% 30.27 in 10.0 mi WNW 12.7 mph - N/A   Overcast
1:35 PM 26.6 °F 15.7 °F 14.0 °F 59% 30.27 in 10.0 mi WNW 12.7 mph - N/A Snow Light Snow
1:55 PM 26.6 °F 15.2 °F 14.0 °F 59% 30.26 in 10.0 mi WNW 13.8 mph - N/A Snow Light Snow
2:35 PM 26.6 °F 15.7 °F 14.0 °F 59% 30.24 in 10.0 mi WNW 12.7 mph - N/A   Overcast
2:55 PM 26.6 °F 16.8 °F 14.0 °F 59% 30.24 in 10.0 mi WNW 10.4 mph - N/A   Overcast
3:35 PM 26.6 °F 15.7 °F 14.0 °F 59% 30.23 in 10.0 mi WNW 12.7 mph - N/A   Overcast
3:55 PM 26.6 °F 16.2 °F 14.0 °F 59% 30.23 in 10.0 mi WNW 11.5 mph - N/A   Overcast
4:15 PM 26.6 °F 14.7 °F 14.0 °F 59% 30.23 in 10.0 mi WNW 15.0 mph - N/A   Overcast
4:35 PM 24.8 °F 14.6 °F 14.0 °F 64% 30.23 in 10.0 mi WNW 10.4 mph 18.4 mph N/A   Overcast
4:55 PM 24.8 °F 14.0 °F 14.0 °F 64% 30.23 in 10.0 mi WNW 11.5 mph - N/A   Overcast
5:15 PM 24.8 °F 15.3 °F 14.0 °F 64% 30.23 in 10.0 mi WNW 9.2 mph - N/A   Overcast
5:35 PM 24.8 °F 15.3 °F 14.0 °F 64% 30.23 in 10.0 mi NW 9.2 mph - N/A   Overcast
5:55 PM 24.8 °F 16.9 °F 14.0 °F 64% 30.22 in 10.0 mi WNW 6.9 mph - N/A   Overcast
6:15 PM 24.8 °F 16.9 °F 14.0 °F 64% 30.22 in 10.0 mi NW 6.9 mph - N/A   Overcast
6:35 PM 24.8 °F 19.1 °F 15.8 °F 69% 30.22 in 10.0 mi NW 4.6 mph - N/A   Overcast
6:55 PM 24.8 °F 20.5 °F 15.8 °F 69% 30.22 in 10.0 mi WNW 3.5 mph - N/A   Overcast
7:35 PM 21.2 °F - 14.0 °F 74% 30.22 in 10.0 mi Calm Calm - N/A   Scattered Clouds
7:55 PM 21.2 °F - 15.8 °F 80% 30.21 in 10.0 mi Calm Calm - N/A   Clear
8:15 PM 19.4 °F - 15.8 °F 86% 30.21 in 10.0 mi Calm Calm - N/A   Clear
8:35 PM 19.4 °F - 14.0 °F 80% 30.21 in 10.0 mi Calm Calm - N/A   Clear
8:55 PM 17.6 °F - 14.0 °F 86% 30.21 in 10.0 mi Calm Calm - N/A   Clear
9:15 PM 17.6 °F - 14.0 °F 86% 30.20 in 10.0 mi Calm Calm - N/A   Clear
9:35 PM 17.6 °F - 14.0 °F 86% 30.20 in 10.0 mi Calm Calm - N/A   Clear
9:55 PM 15.8 °F 7.2 °F 14.0 °F 93% 30.20 in 10.0 mi WSW 5.8 mph - N/A   Clear
10:15 PM 17.6 °F 12.3 °F 15.8 °F 93% 30.20 in 10.0 mi South 3.5 mph - N/A   Clear
10:35 PM 17.6 °F 12.3 °F 15.8 °F 93% 30.20 in 10.0 mi South 3.5 mph - N/A   Clear
10:55 PM 15.8 °F - 14.0 °F 93% 30.19 in 10.0 mi Calm Calm - N/A   Clear
11:15 PM 15.8 °F 8.6 °F 14.0 °F 93% 30.19 in 10.0 mi SW 4.6 mph - N/A   Clear
11:35 PM 15.8 °F 8.6 °F 14.0 °F 93% 30.18 in 10.0 mi WSW 4.6 mph - N/A   Clear
11:55 PM 15.8 °F 10.2 °F 14.0 °F 93% 30.17 in 10.0 mi South 3.5 mph - N/A   Clear